{"data":{"norad_id":55303,"epoch":"2026-09-20T23:33:33.140448Z","epoch_age_seconds":51777,"freshness":"FRESH","line1":"1 55303U 23010AL  26263.98163357  .00025966  00000+0  21639-2 0  9993","line2":"2 55303  69.9983 271.8541 0003297 277.9317  82.1468 14.98544253202038","mean_motion":14.98544253,"eccentricity":0.0003297,"inclination_deg":69.9983,"raan_deg":271.8541,"arg_perigee_deg":277.9317,"mean_anomaly_deg":82.1468,"bstar":0.0021639,"rev_number":20203,"period_min":96.093258315008,"perigee_km":569.10214998147,"apogee_km":573.68467033392,"semimajor_km":6949.5304101577,"source":"CELESTRAK","updated_at":"2026-09-21T09:00:33.172327Z"}}